Tracking 18851 objects as of 25-Nov-2017
HD Live streaming from Space Station
objects crossing your sky now

FENGYUN 1C DEB

Track FENGYUN 1C DEB now!
10-day predictions


NORAD ID: 30406
Int'l Code: 1999-025ADV
Perigee: 850.6 km
Apogee: 1,296.0 km
Inclination: 98.6 °
Period: 106.5 minutes
Semi major axis: 7444 km
RCS: 0.0212 m2 (small)
Launch date: May 10, 1999
Source: People's Republic of China (PRC)
Launch site: Taiyaun Space Center, China (TSC)

Note: This is SATELLITE DEBRIS
aabbcc
Your satellite tracking list
Your tracking list is empty




NASA's NSSDC Master Catalog

Two Line Element Set (TLE):
1 30406U 99025ADV 17328.91469625 +.00000989 +00000-0 +11843-2 0  9996
2 30406 098.6060 193.2063 0299182 051.0679 062.9228 13.51653686533865
Source of the keplerian elements: AFSPC